Marchen Maersk — OUIY2 — position and weather

sailwx.info

Track history (hours):
 
Tides and Currents Weather Stations Pressure Air Temp Water Temp Dewpoint Dewpoint Depression Visibility Wind Speed Wind Dir Waves Ship Positions

Marchen Maersk

Last reported at 2014-Jul-25 05:33 UTC. Time now 2014-Jul-26 13:11 UTC.
Position N 38°12' W 009°43'.

Length 367 m; draft 14.6 m.

Type: Cargo ship. MMSI: 220594000.

Date/timePositionNaut miles runAvg speedWind from/ knotsBaromVisibWave heightAir tempDewpointWater temp
2014-Jul-25 05:33N 38°12' W 009°43'1918.6
2014-Jul-25 04:33N 37°54' W 009°39'1818.3
2014-Jul-25 03:33N 37°36' W 009°33'1918.8
2014-Jul-25 02:34N 37°18' W 009°28'2218.7
2014-Jul-25 01:23N 36°57' W 009°21'1518.2
2014-Jul-25 00:33N 36°44' W 009°09'1918.9
2014-Jul-24 23:33N 36°39' W 008°47'1918.6
2014-Jul-24 22:33N 36°33' W 008°25'1818.5
2014-Jul-24 21:33N 36°28' W 008°03'2518.4
2014-Jul-24 20:12N 36°20' W 007°34'1318.4
2014-Jul-24 19:31N 36°16' W 007°19'1918.8
2014-Jul-24 18:29N 36°10' W 006°56'1818.9
2014-Jul-24 17:31N 36°04' W 006°35'26418.3
2014-Jul-24 03:06N 36°34' W 001°09'2020.8
2014-Jul-24 02:07N 36°37' W 000°44'1220.6
2014-Jul-24 01:33N 36°39' W 000°29'2120.7
2014-Jul-24 00:33N 36°42' W 000°04'2120.9
2014-Jul-23 23:33N 36°45' E 000°22'2120.8
2014-Jul-23 22:33N 36°48' E 000°48'2121.0
2014-Jul-23 21:33N 36°52' E 001°14'2120.9
2014-Jul-23 20:33N 36°54' E 001°40'2121.4
2014-Jul-23 19:33N 36°57' E 002°06'2121.3
2014-Jul-23 18:33N 37°00' E 002°32'2020.5
2014-Jul-23 17:33N 37°03' E 002°58'2120.2
2014-Jul-23 16:32N 37°07' E 003°23'2020.5
2014-Jul-23 15:33N 37°10' E 003°48'2121.1
2014-Jul-23 14:33N 37°14' E 004°14'2020.6
2014-Jul-23 13:33N 37°15' E 004°40'2121.2
2014-Jul-23 12:33N 37°18' E 005°06'2121.0
2014-Jul-23 11:33N 37°22' E 005°33'2120.8
2014-Jul-23 10:33N 37°24' E 005°58'2121.2
2014-Jul-23 09:33N 37°27' E 006°25'35519.7
2014-Jul-22 15:34N 36°40' E 013°45'2020.3
2014-Jul-22 14:33N 36°34' E 014°10'2020.1
2014-Jul-22 13:33N 36°27' E 014°33'  
Track history (hours):
 
Tides and Currents Weather Stations Pressure Air Temp Water Temp Dewpoint Dewpoint Depression Visibility Wind Speed Wind Dir Waves Ship Positions

Marchen Maersk

Last reported at 2014-Jul-25 05:33 UTC. Time now 2014-Jul-26 13:11 UTC.
Position N 38°12' W 009°43'.

Length 367 m; draft 14.6 m.

Type: Cargo ship. MMSI: 220594000.

Date/timePositionNaut miles runAvg speedWind from/ knotsBaromVisibWave heightAir tempDewpointWater temp
2014-Jul-25 05:33N 38°12' W 009°43'1918.6
2014-Jul-25 04:33N 37°54' W 009°39'1818.3
2014-Jul-25 03:33N 37°36' W 009°33'1918.8
2014-Jul-25 02:34N 37°18' W 009°28'2218.7
2014-Jul-25 01:23N 36°57' W 009°21'1518.2
2014-Jul-25 00:33N 36°44' W 009°09'1918.9
2014-Jul-24 23:33N 36°39' W 008°47'1918.6
2014-Jul-24 22:33N 36°33' W 008°25'1818.5
2014-Jul-24 21:33N 36°28' W 008°03'2518.4
2014-Jul-24 20:12N 36°20' W 007°34'1318.4
2014-Jul-24 19:31N 36°16' W 007°19'1918.8
2014-Jul-24 18:29N 36°10' W 006°56'1818.9
2014-Jul-24 17:31N 36°04' W 006°35'26418.3
2014-Jul-24 03:06N 36°34' W 001°09'2020.8
2014-Jul-24 02:07N 36°37' W 000°44'1220.6
2014-Jul-24 01:33N 36°39' W 000°29'2120.7
2014-Jul-24 00:33N 36°42' W 000°04'2120.9
2014-Jul-23 23:33N 36°45' E 000°22'2120.8
2014-Jul-23 22:33N 36°48' E 000°48'2121.0
2014-Jul-23 21:33N 36°52' E 001°14'2120.9
2014-Jul-23 20:33N 36°54' E 001°40'2121.4
2014-Jul-23 19:33N 36°57' E 002°06'2121.3
2014-Jul-23 18:33N 37°00' E 002°32'2020.5
2014-Jul-23 17:33N 37°03' E 002°58'2120.2
2014-Jul-23 16:32N 37°07' E 003°23'2020.5
2014-Jul-23 15:33N 37°10' E 003°48'2121.1
2014-Jul-23 14:33N 37°14' E 004°14'2020.6
2014-Jul-23 13:33N 37°15' E 004°40'2121.2
2014-Jul-23 12:33N 37°18' E 005°06'2121.0
2014-Jul-23 11:33N 37°22' E 005°33'2120.8
2014-Jul-23 10:33N 37°24' E 005°58'2121.2
2014-Jul-23 09:33N 37°27' E 006°25'35519.7
2014-Jul-22 15:34N 36°40' E 013°45'2020.3
2014-Jul-22 14:33N 36°34' E 014°10'2020.1
2014-Jul-22 13:33N 36°27' E 014°33'  

Dump ship's entire track history